Location: Pedimozza
(42.0500°N, 9.3500°E)
Time: 07:40:52
(UTC+00:00)

Cosmos 1733 Rocket - Pass Details

Date: 19 August 2019
Orbit: 604 x 627 km, 82.5° (Epoch: 21 September)

Event Time Altitude Azimuth Distance (km) Brightness Sun altitude
Exits shadow 19:15:37 12° 144° (SE) 1,824 4.9 -10.7°
Maximum altitude 19:18:52 27° 89° (E) 1,174 4.0 -11.2°
Drops below altitude 10° 19:22:31 10° 32° (NNE) 1,959 5.6 -11.8°
Sets 19:24:58 0° 20° (NNE) 2,868 6.6 -12.2°
